DW6863 Bow WA US current weather conditions

sailwx.info

Wind from 180

Air temperature 20.6° C
Dewpoint 13.7° C

Last reported at 2019-Jun-16 23:05 UTC.
Time now 2019-Jun-17 03:03 UTC

Location: N 48°34' W 122°32'.
View on Google Maps.

See reports from other nearby stations

  
Tides and Currents Weather Stations Pressure Air Temp Water Temp Dewpoint Dewpoint Depression Visibility Wind Speed Wind Dir Waves Ship Positions
date/time (UTC)wind fromknots sea level pressurealtimeterstation pressurevisibilityair tempwater tempwave heightnotes
2019-Jun-16 23:05 180 20.6
2019-Jun-16 23:00 270 1 gusting 3 20.0
2019-Jun-16 22:55 270 3 gusting 3 20.0
2019-Jun-16 22:50 270 1 gusting 3 20.0
2019-Jun-16 22:45 247 1 gusting 3 20.6
2019-Jun-16 22:40 270 1 gusting 3 21.1
2019-Jun-16 22:35 270 2 gusting 3 21.7
2019-Jun-16 22:30 270 0 gusting 3 21.7
2019-Jun-16 22:25 225 2 gusting 3 21.7
2019-Jun-16 22:20 225 2 gusting 3 21.7
2019-Jun-16 22:15 202 2 gusting 3 21.7
2019-Jun-16 22:10 247 0 gusting 3 21.7
2019-Jun-16 22:05 225 0 gusting 3 21.1
2019-Jun-16 22:00 225 0 gusting 4 21.1
2019-Jun-16 21:55 247 1 gusting 3 21.7
2019-Jun-16 21:50 225 0 gusting 3 21.7
2019-Jun-16 21:45 247 1 gusting 4 21.7
2019-Jun-16 21:40 202 2 gusting 4 21.7
2019-Jun-16 21:35 225 1 gusting 3 21.1
2019-Jun-16 21:30 225 1 gusting 3 20.6
2019-Jun-16 21:25 270 1 gusting 3 20.6
2019-Jun-16 21:20 225 1 gusting 3 21.1
2019-Jun-16 21:15 202 1 gusting 3 21.7
2019-Jun-16 21:10 202 1 gusting 3 21.1
2019-Jun-16 21:05 225 2 gusting 4 21.1
2019-Jun-16 21:00 180 1 gusting 3 20.6
2019-Jun-16 20:55 225 1 gusting 3 20.6
2019-Jun-16 20:50 202 1 gusting 4 20.6
2019-Jun-16 20:45 225 1 gusting 4 20.6
2019-Jun-16 20:40 270 3 gusting 5 20.6
2019-Jun-16 20:35 225 1 gusting 4 20.6
2019-Jun-16 20:30 225 1 gusting 3 20.6
2019-Jun-16 20:25 225 0 gusting 3 20.6
2019-Jun-16 20:20 225 0 gusting 3 20.6
2019-Jun-16 20:15 270 2 gusting 3 20.6
2019-Jun-16 20:05 180 2 gusting 5 20.6
2019-Jun-16 20:00 225 1 gusting 4 20.0
2019-Jun-16 19:55 270 1 gusting 4 20.0
2019-Jun-16 19:50 202 2 gusting 4 19.4
2019-Jun-16 19:45 247 2 gusting 4 19.4
2019-Jun-16 19:40 135 3 gusting 6 19.4
2019-Jun-16 19:35 135 3 gusting 6 19.4
2019-Jun-16 19:30 157 4 gusting 6 19.4
2019-Jun-16 19:25 157 2 gusting 5 18.9
2019-Jun-16 19:20 180 1 gusting 4 18.9
2019-Jun-16 19:15 225 1 gusting 6 18.9
2019-Jun-16 19:10 135 3 gusting 5 18.9
2019-Jun-16 19:05 157 1 gusting 6 18.3
2019-Jun-16 19:00 225 0 gusting 5 18.3
2019-Jun-16 18:55 135 4 gusting 6 18.3
2019-Jun-16 18:50 135 2 gusting 5 17.8
2019-Jun-16 18:45 202 2 gusting 4 17.8
2019-Jun-16 18:40 135 3 gusting 6 18.3
2019-Jun-16 18:35 090 3 gusting 6 18.3
2019-Jun-16 18:30 202 0 gusting 4 18.9
2019-Jun-16 18:25 202 0 gusting 3 18.3
2019-Jun-16 18:20 202 1 gusting 3 17.8
2019-Jun-16 18:15 225 0 gusting 3 18.3
2019-Jun-16 18:10 270 1 gusting 3 18.3
2019-Jun-16 18:05 225 1 gusting 3 17.8
2019-Jun-16 18:00 180 2 gusting 3 17.8
2019-Jun-16 17:55 225 17.8
2019-Jun-16 17:50 270 0 gusting 3 18.3
2019-Jun-16 17:45 225 0 gusting 4 17.8
2019-Jun-16 17:40 202 1 gusting 3 17.8
2019-Jun-16 17:35 225 1 gusting 4 17.8
2019-Jun-16 17:30 225 1 gusting 2 17.2
2019-Jun-16 17:25 270 0 gusting 3 17.2
2019-Jun-16 17:20 270 1 gusting 3 17.2
2019-Jun-16 17:15 247 0 gusting 4 16.7
2019-Jun-16 17:10 180 1 gusting 3 16.7
2019-Jun-16 17:05 270 1 gusting 4 16.7
2019-Jun-16 17:00 225 1 gusting 4 16.7
2019-Jun-16 16:55 225 1 gusting 3 16.1
2019-Jun-16 16:50 180 1 gusting 3 16.1
2019-Jun-16 16:45 180 1 gusting 3 15.6
2019-Jun-16 16:40 180 0 gusting 2 15.6
2019-Jun-16 16:35 180 2 gusting 4 15.6
2019-Jun-16 16:30 180 1 gusting 4 15.6
2019-Jun-16 16:25 202 0 gusting 3 15.6
2019-Jun-16 16:20 180 2 gusting 5 15.6
2019-Jun-16 16:15 202 1 gusting 4 15.0
2019-Jun-16 16:10 202 1 gusting 4 15.0
2019-Jun-16 16:05 202 1 gusting 4 15.0
2019-Jun-16 16:00 202 1 gusting 3 15.0
2019-Jun-16 15:55 180 0 gusting 3 15.0
2019-Jun-16 15:50 180 2 gusting 3 14.4
2019-Jun-16 15:45 225 2 gusting 4 14.4
2019-Jun-16 15:40 135 2 gusting 4 14.4
2019-Jun-16 15:35 180 2 gusting 6 14.4
2019-Jun-16 15:30 157 1 gusting 5 13.9
2019-Jun-16 15:25 090 1 gusting 5 13.9
2019-Jun-16 15:20 135 2 gusting 6 13.9
2019-Jun-16 15:15 157 2 gusting 4 13.9
2019-Jun-16 15:10 135 1 gusting 5 13.3
2019-Jun-16 15:05 135 2 gusting 6 13.3
2019-Jun-16 15:00 157 0 gusting 4 13.3
2019-Jun-16 14:55 135 2 gusting 7 13.3
2019-Jun-16 14:50 135 3 gusting 6 13.3
2019-Jun-16 14:45 135 3 gusting 6 13.3
2019-Jun-16 14:40 090 1 gusting 5 12.8
2019-Jun-16 14:35 135 3 gusting 6 12.8
2019-Jun-16 14:30 090 5 gusting 9 12.8
2019-Jun-16 14:25 135 3 gusting 7 12.8
2019-Jun-16 14:20 225 3 gusting 5 12.8
2019-Jun-16 14:15 180 2 gusting 10 12.8
2019-Jun-16 14:10 135 5 gusting 10 12.8
2019-Jun-16 14:00 135 5 gusting 10 12.8
2019-Jun-16 13:55 135 3 gusting 10 12.8
2019-Jun-16 13:50 180 2 gusting 10 12.2
2019-Jun-16 13:45 090 6 gusting 13 12.2
2019-Jun-16 13:40 135 6 gusting 11 12.2
2019-Jun-16 13:35 090 5 gusting 13 12.2
2019-Jun-16 13:30 135 4 gusting 11 12.2
2019-Jun-16 13:25 135 6 gusting 9 12.2
2019-Jun-16 13:20 135 6 gusting 10 12.2
2019-Jun-16 13:15 135 7 gusting 13 12.2
2019-Jun-16 13:10 135 5 gusting 12 12.2
2019-Jun-16 13:05 135 4 gusting 10 12.2
2019-Jun-16 13:00 135 2 gusting 9 12.2
2019-Jun-16 12:55 180 2 gusting 6 12.2
2019-Jun-16 12:50 157 2 gusting 8 12.2
2019-Jun-16 12:45 135 5 gusting 8 12.2
2019-Jun-16 12:40 090 2 gusting 6 12.2
2019-Jun-16 12:35 112 3 gusting 6 12.2
2019-Jun-16 12:30 135 2 gusting 7 12.2
2019-Jun-16 12:25 090 4 gusting 8 12.2
2019-Jun-16 12:20 112 5 gusting 8 12.2
2019-Jun-16 12:15 090 3 gusting 6 12.2
2019-Jun-16 12:10 135 5 gusting 7 12.2
2019-Jun-16 12:05 180 3 gusting 5 12.2
2019-Jun-16 12:00 135 2 gusting 8 12.2
2019-Jun-16 11:55 090 3 gusting 6 12.2
2019-Jun-16 11:50 225 0 gusting 9 12.2
2019-Jun-16 11:45 090 0 gusting 4 12.2
2019-Jun-16 11:40 135 0 gusting 6 12.2
2019-Jun-16 11:35 135 3 gusting 6 12.2
2019-Jun-16 11:30 135 12.2
2019-Jun-16 11:25 135 2 gusting 6 12.2
2019-Jun-16 11:20 135 2 gusting 6 12.2
2019-Jun-16 11:15 180 1 gusting 4 12.2
2019-Jun-16 11:10 180 2 gusting 7 12.2
2019-Jun-16 11:05 180 4 gusting 8 12.2
2019-Jun-16 11:00 135 2 gusting 4 12.2
2019-Jun-16 10:55 157 2 gusting 5 12.2
2019-Jun-16 10:50 135 1 gusting 6 12.2
2019-Jun-16 10:45 180 3 gusting 6 11.7
2019-Jun-16 10:40 135 6 gusting 9 11.7
2019-Jun-16 10:35 135 5 gusting 10 11.7
2019-Jun-16 10:30 135 5 gusting 9 11.7
2019-Jun-16 10:25 135 7 gusting 11 11.7
2019-Jun-16 10:20 135 6 gusting 9 12.2
2019-Jun-16 10:15 090 3 gusting 6 12.2
2019-Jun-16 10:10 090 2 gusting 10 11.7
2019-Jun-16 10:05 135 4 gusting 9 11.7
2019-Jun-16 10:00 135 6 gusting 12 12.2
2019-Jun-16 09:55 090 3 gusting 9 12.2
2019-Jun-16 09:50 112 6 gusting 8 12.2
2019-Jun-16 09:45 135 12.2
2019-Jun-16 09:40 157 0 gusting 5 12.2
2019-Jun-16 09:35 135 0 gusting 5 12.2
2019-Jun-16 09:30 135 1 gusting 4 12.2
2019-Jun-16 09:25 135 1 gusting 10 12.2
2019-Jun-16 09:20 090 3 gusting 9 12.2
2019-Jun-16 09:15 135 6 gusting 13 12.2
2019-Jun-16 09:10 090 6 gusting 8 12.2
2019-Jun-16 09:05 135 5 gusting 8 12.2
2019-Jun-16 09:00 135 5 gusting 10 12.2
2019-Jun-16 08:55 135 6 gusting 13 11.7
2019-Jun-16 08:50 135 4 gusting 8 11.7
2019-Jun-16 08:45 135 5 gusting 8 11.7
2019-Jun-16 08:40 067 3 gusting 8 11.7
2019-Jun-16 08:35 135 3 gusting 8 11.7
2019-Jun-16 08:30 112 6 gusting 8 11.7
2019-Jun-16 08:25 157 3 gusting 10 11.7
2019-Jun-16 08:20 135 3 gusting 10 11.7
2019-Jun-16 08:15 135 5 gusting 8 11.7
2019-Jun-16 08:10 090 4 gusting 8 11.7
2019-Jun-16 08:05 135 4 gusting 10 11.7
2019-Jun-16 08:00 135 5 gusting 9 11.7
2019-Jun-16 07:55 090 5 gusting 9 11.7
2019-Jun-16 07:50 135 5 gusting 9 11.7
2019-Jun-16 07:45 135 4 gusting 8 11.7
2019-Jun-16 07:40 135 4 gusting 8 11.1
2019-Jun-16 07:35 090 4 gusting 9 11.1
2019-Jun-16 07:30 135 6 gusting 8 11.1
2019-Jun-16 07:25 090 5 gusting 6 11.1
2019-Jun-16 07:20 090 4 gusting 6 11.1
2019-Jun-16 07:15 090 3 gusting 6 11.1
2019-Jun-16 07:10 090 4 gusting 7 11.1
2019-Jun-16 07:05 135 4 gusting 6 11.1
2019-Jun-16 07:00 090 3 gusting 7 11.1
2019-Jun-16 06:55 090 4 gusting 7 11.1
2019-Jun-16 06:50 090 5 gusting 6 11.7
2019-Jun-16 06:45 090 3 gusting 5 11.7
2019-Jun-16 06:40 112 2 gusting 6 11.7
2019-Jun-16 06:35 090 3 gusting 6 11.7
2019-Jun-16 06:30 112 3 gusting 5 11.7
2019-Jun-16 06:25 135 2 gusting 6 11.7
2019-Jun-16 06:20 135 2 gusting 7 11.7
2019-Jun-16 06:15 090 4 gusting 5 11.7
2019-Jun-16 06:10 135 1 gusting 5 12.2
2019-Jun-16 06:05 090 2 gusting 3 12.2
2019-Jun-16 06:00 090 2 gusting 3 12.2
2019-Jun-16 05:55 112 12.2
2019-Jun-16 05:50 157 12.2
2019-Jun-16 05:45 135 12.8
2019-Jun-16 05:40 135 1 gusting 2 12.8
2019-Jun-16 05:35 270 1 gusting 3 12.8
2019-Jun-16 05:30 180 1 gusting 5 12.8
2019-Jun-16 05:25 180 1 gusting 3 12.8
2019-Jun-16 05:20 180 0 gusting 3 12.8
2019-Jun-16 05:15 180 12.8
2019-Jun-16 05:10 180 2 gusting 6 12.8
2019-Jun-16 05:05 180 2 gusting 4 13.3
2019-Jun-16 04:55 270 0 gusting 3 13.3
2019-Jun-16 04:50 270 1 gusting 5 13.3
2019-Jun-16 04:45 270 2 gusting 4 13.3
2019-Jun-16 04:40 292 1 gusting 2 13.3
2019-Jun-16 04:35 180 0 gusting 3 13.3
2019-Jun-16 04:30 270 2 gusting 4 13.3
2019-Jun-16 04:25 270 2 gusting 4 13.3
2019-Jun-16 04:20 270 3 gusting 4 13.9
2019-Jun-16 04:15 270 3 gusting 4 13.9
2019-Jun-16 04:10 270 2 gusting 3 14.4
2019-Jun-16 04:05 270 1 gusting 3 15.0
2019-Jun-16 04:00 270 15.0
2019-Jun-16 03:55 157 0 gusting 3 15.6
2019-Jun-16 03:50 225 15.6
2019-Jun-16 03:45 315 1 gusting 3 15.6
2019-Jun-16 03:40 270 3 gusting 3 15.6
2019-Jun-16 03:35 270 2 gusting 5 15.6
2019-Jun-16 03:30 225 2 gusting 3 15.6
2019-Jun-16 03:25 180 15.6
2019-Jun-16 03:20 135 15.6
2019-Jun-16 03:15 270 1 gusting 4 15.6
2019-Jun-16 03:10 292 2 gusting 3 15.6
2019-Jun-16 03:05 315 2 gusting 4 16.1
2019-Jun-16 03:00 180 1 gusting 3 16.1
2019-Jun-16 02:55 135 1 gusting 3 16.7
2019-Jun-16 02:50 157 1 gusting 4 16.7
2019-Jun-16 02:45 180 0 gusting 3 17.2
2019-Jun-16 02:40 180 1 gusting 2 17.2
2019-Jun-16 02:35 247 1 gusting 3 17.2
2019-Jun-16 02:30 247 17.2
2019-Jun-16 02:25 225 17.2
2019-Jun-16 02:20 270 0 gusting 2 17.2
2019-Jun-16 02:15 247 0 gusting 3 17.2
2019-Jun-16 02:10 247 1 gusting 3 17.8
2019-Jun-16 02:05 270 2 gusting 3 18.3
2019-Jun-16 02:00 247 0 gusting 2 18.3
2019-Jun-16 01:55 247 18.3
2019-Jun-16 01:50 270 1 gusting 3 18.3
2019-Jun-16 01:45 247 2 gusting 3 18.9
2019-Jun-16 01:40 247 1 gusting 3 19.4
2019-Jun-16 01:35 247 2 gusting 4 18.9
2019-Jun-16 01:30 270 18.9
2019-Jun-16 01:25 270 2 gusting 3 19.4
2019-Jun-16 01:20 225 1 gusting 3 20.0
2019-Jun-16 01:15 225 0 gusting 2 19.4
2019-Jun-16 01:10 247 1 gusting 3 19.4
2019-Jun-16 01:05 247 1 gusting 3 19.4
2019-Jun-16 01:00 225 1 gusting 3 20.0
2019-Jun-16 00:55 225 0 gusting 3 20.0
2019-Jun-16 00:50 225 1 gusting 3 19.4
2019-Jun-16 00:45 225 1 gusting 3 19.4
2019-Jun-16 00:40 225 1 gusting 3 19.4
2019-Jun-16 00:35 247 1 gusting 3 19.4
2019-Jun-16 00:30 270 1 gusting 4 19.4
2019-Jun-16 00:25 247 1 gusting 3 20.0
2019-Jun-16 00:20 270 2 gusting 3 20.0
2019-Jun-16 00:15 270 2 gusting 5 20.0
2019-Jun-16 00:10 270 2 gusting 3 21.1
2019-Jun-16 00:05 180 1 gusting 3 21.1
2019-Jun-16 00:00 202 1 gusting 3 20.6
2019-Jun-15 23:55 202 1 gusting 2 20.6
2019-Jun-15 23:50 247 1 gusting 3 20.6
2019-Jun-15 23:45 225 0 gusting 3 20.6
2019-Jun-15 23:40 225 1 gusting 3 20.6
2019-Jun-15 23:35 225 0 gusting 2 20.6
2019-Jun-15 23:30 225 1 gusting 3 20.6
2019-Jun-15 23:25 270 1 gusting 3 20.6
2019-Jun-15 23:20 225 0 gusting 3 20.6
2019-Jun-15 23:15 225 1 gusting 3 20.0
2019-Jun-15 23:10 225 1 gusting 3 20.0
2019-Jun-15 23:05 225 1 gusting 3 20.0
2019-Jun-15 23:00 247 1 gusting 3 20.0
2019-Jun-15 22:55 247 0 gusting 3 20.0
2019-Jun-15 22:50 270 1 gusting 3 20.0
2019-Jun-15 22:45 270 2 gusting 3 20.0
2019-Jun-15 22:40 225 0 gusting 3 20.0
2019-Jun-15 22:35 225 0 gusting 3 20.0
2019-Jun-15 22:30 270 2 gusting 3 20.0
2019-Jun-15 22:25 270 2 gusting 3 20.6
2019-Jun-15 22:20 247 1 gusting 3 20.6
2019-Jun-15 22:15 225 2 gusting 3 20.6
2019-Jun-15 22:10 270 1 gusting 3 20.6
2019-Jun-15 22:05 225 0 gusting 3 20.6
2019-Jun-15 22:00 202 1 gusting 3 21.1
2019-Jun-15 21:55 225 0 gusting 3 20.6
2019-Jun-15 21:50 202 0 gusting 3 20.0
2019-Jun-15 21:45 225 0 gusting 2 20.0
2019-Jun-15 21:40 225 1 gusting 2 19.4
2019-Jun-15 21:35 225 2 gusting 3 20.0
2019-Jun-15 21:30 247 1 gusting 3 20.0
2019-Jun-15 21:25 225 0 gusting 2 20.0
2019-Jun-15 21:20 225 1 gusting 3 19.4
2019-Jun-15 21:15 225 2 gusting 4 20.0
2019-Jun-15 21:10 225 1 gusting 3 19.4
2019-Jun-15 21:05 157 2 gusting 4 19.4
2019-Jun-15 21:00 180 2 gusting 3 18.9
2019-Jun-15 20:55 225 1 gusting 3 18.9
2019-Jun-15 20:50 225 1 gusting 3 18.3
2019-Jun-15 20:45 225 1 gusting 3 18.3
2019-Jun-15 20:40 225 2 gusting 4 18.3
2019-Jun-15 20:35 225 1 gusting 4 18.9
2019-Jun-15 20:30 202 2 gusting 3 18.9
2019-Jun-15 20:25 247 1 gusting 3 18.9
2019-Jun-15 20:20 225 1 gusting 3 18.3
2019-Jun-15 20:15 225 1 gusting 3 17.8
2019-Jun-15 20:10 225 2 gusting 4 17.8
2019-Jun-15 20:05 180 2 gusting 3 17.8
2019-Jun-15 20:00 247 2 gusting 5 17.2
2019-Jun-15 19:50 180 1 gusting 5 17.2
2019-Jun-15 19:45 135 2 gusting 4 17.2
2019-Jun-15 19:40 225 2 gusting 5 17.8
2019-Jun-15 19:35 180 2 gusting 4 17.8
2019-Jun-15 19:30 135 2 gusting 5 17.2
2019-Jun-15 19:25 180 2 gusting 6 17.2
2019-Jun-15 19:20 225 2 gusting 4 16.7
2019-Jun-15 19:15 202 1 gusting 4 16.7
2019-Jun-15 19:10 180 1 gusting 5 16.7
2019-Jun-15 19:05 135 4 gusting 6 16.7
2019-Jun-15 19:00 135 2 gusting 5 16.1
2019-Jun-15 18:55 157 1 gusting 6 16.1
2019-Jun-15 18:50 135 2 gusting 5 16.1
2019-Jun-15 18:45 202 2 gusting 4 16.1
2019-Jun-15 18:40 202 3 gusting 4 16.1
2019-Jun-15 18:35 180 1 gusting 4 16.1
2019-Jun-15 18:30 202 0 gusting 3 16.1
2019-Jun-15 18:25 180 1 gusting 3 16.1
2019-Jun-15 18:20 225 1 gusting 5 16.1
2019-Jun-15 18:15 180 1 gusting 4 16.1
2019-Jun-15 18:10 180 3 gusting 5 15.6
2019-Jun-15 18:05 180 1 gusting 4 15.0
2019-Jun-15 18:00 225 2 gusting 3 15.0
2019-Jun-15 17:55 180 2 gusting 5 15.0
2019-Jun-15 17:50 247 1 gusting 3 15.0
2019-Jun-15 17:45 180 1 gusting 3 15.0
2019-Jun-15 17:40 202 0 gusting 4 15.0
2019-Jun-15 17:35 180 2 gusting 4 14.4
2019-Jun-15 17:30 180 2 gusting 4 14.4
2019-Jun-15 17:25 180 1 gusting 3 14.4
2019-Jun-15 17:20 202 2 gusting 4 14.4
2019-Jun-15 17:15 247 1 gusting 4 13.9
2019-Jun-15 17:10 202 1 gusting 4 13.9
2019-Jun-15 17:05 180 1 gusting 3 13.9
2019-Jun-15 17:00 180 0 gusting 2 13.3
2019-Jun-15 16:55 180 1 gusting 2 13.3
2019-Jun-15 16:50 247 0 gusting 1 13.3
2019-Jun-15 16:45 202 0 gusting 2 13.3
2019-Jun-15 16:40 270 0 gusting 1 13.3
2019-Jun-15 16:35 202 13.3
2019-Jun-15 16:30 247 13.3
2019-Jun-15 16:25 225 12.8
2019-Jun-15 16:20 270 1 gusting 2 13.3
2019-Jun-15 16:15 270 13.3
2019-Jun-15 16:10 225 12.8
2019-Jun-15 16:05 225 0 gusting 2 12.8
2019-Jun-15 16:00 270 1 gusting 2 12.8
2019-Jun-15 15:55 180 1 gusting 2 12.8
2019-Jun-15 15:50 180 12.8
2019-Jun-15 15:45 202 0 gusting 2 12.8
2019-Jun-15 15:40 180 0 gusting 2 12.8
2019-Jun-15 15:35 225 0 gusting 2 12.8
2019-Jun-15 15:30 225 0 gusting 2 12.8
2019-Jun-15 15:25 270 0 gusting 3 12.8
2019-Jun-15 15:20 270 0 gusting 2 12.8
2019-Jun-15 15:15 202 12.8
2019-Jun-15 15:10 180 0 gusting 2 12.8
2019-Jun-15 15:05 180 0 gusting 3 12.8
2019-Jun-15 15:00 270 12.8
2019-Jun-15 14:55 270 0 gusting 1 12.8
2019-Jun-15 14:50 270 12.8
2019-Jun-15 14:45 225 1 gusting 3 12.8
2019-Jun-15 14:40 157 1 gusting 3 12.8
2019-Jun-15 14:35 180 2 gusting 3 12.8
2019-Jun-15 14:30 135 12.8
2019-Jun-15 14:25 202 0 gusting 4 12.8
2019-Jun-15 14:20 180 0 gusting 3 12.8
2019-Jun-15 14:15 247 0 gusting 3 12.8
2019-Jun-15 14:10 180 1 gusting 4 12.2
2019-Jun-15 14:05 202 1 gusting 4 12.2
2019-Jun-15 14:00 180 2 gusting 4 12.2
2019-Jun-15 13:55 202 2 gusting 4 12.2
2019-Jun-15 13:50 180 0 gusting 4 12.2
2019-Jun-15 13:45 180 1 gusting 3 12.2
2019-Jun-15 13:40 135 0 gusting 3 12.2
2019-Jun-15 13:35 135 0 gusting 3 12.2
2019-Jun-15 13:30 225 0 gusting 3 12.2
2019-Jun-15 13:25 135 2 gusting 6 12.2
2019-Jun-15 13:20 135 3 gusting 5 12.2
2019-Jun-15 13:15 135 1 gusting 5 12.2
2019-Jun-15 13:10 090 0 gusting 5 12.2
2019-Jun-15 13:05 135 2 gusting 5 12.2
2019-Jun-15 13:00 067 1 gusting 3 12.2
2019-Jun-15 12:55 202 2 gusting 3 12.2
2019-Jun-15 12:50 157 0 gusting 3 11.7
2019-Jun-15 12:45 202 0 gusting 7 11.7
2019-Jun-15 12:40 135 4 gusting 8 11.7
2019-Jun-15 12:35 135 6 gusting 7 11.7
2019-Jun-15 12:30 135 2 gusting 6 11.7
2019-Jun-15 12:25 135 1 gusting 4 11.7
2019-Jun-15 12:20 135 3 gusting 8 11.7
2019-Jun-15 12:15 135 5 gusting 8 11.7
2019-Jun-15 12:10 135 3 gusting 7 11.1
2019-Jun-15 12:05 135 3 gusting 5 11.1
2019-Jun-15 12:00 135 2 gusting 5 11.1
2019-Jun-15 11:55 112 3 gusting 5 11.1
2019-Jun-15 11:50 112 3 gusting 6 11.1
2019-Jun-15 11:45 090 3 gusting 5 11.1
2019-Jun-15 11:40 090 3 gusting 5 11.1
2019-Jun-15 11:35 090 2 gusting 5 11.1
2019-Jun-15 11:30 135 1 gusting 4 10.6
2019-Jun-15 11:25 090 2 gusting 6 10.6
2019-Jun-15 11:20 090 3 gusting 6 10.6
2019-Jun-15 11:15 090 4 gusting 6 10.6
2019-Jun-15 11:10 112 1 gusting 5 10.6
2019-Jun-15 11:05 090 2 gusting 5 10.6
2019-Jun-15 11:00 090 2 gusting 3 10.6
2019-Jun-15 10:55 090 1 gusting 4 10.6
2019-Jun-15 10:45 135 2 gusting 3 10.6
2019-Jun-15 10:40 090 1 gusting 4 10.6
2019-Jun-15 10:35 090 1 gusting 1 10.6
2019-Jun-15 10:30 090 0 gusting 2 11.1
2019-Jun-15 10:25 090 11.1
2019-Jun-15 10:20 135 11.7
2019-Jun-15 10:15 225 0 gusting 1 11.7
2019-Jun-15 10:10 225 11.7
2019-Jun-15 10:05 270 0 gusting 3 11.7
2019-Jun-15 10:00 180 0 gusting 3 11.7
2019-Jun-15 09:55 180 0 gusting 2 11.7
2019-Jun-15 09:50 180 1 gusting 2 11.7
2019-Jun-15 09:45 180 0 gusting 3 11.7
2019-Jun-15 09:40 180 1 gusting 3 11.7
2019-Jun-15 09:35 202 1 gusting 3 11.7
2019-Jun-15 09:30 180 0 gusting 2 11.7
2019-Jun-15 09:25 270 2 gusting 3 12.2
2019-Jun-15 09:20 292 12.2
2019-Jun-15 09:15 292 3 gusting 4 11.7
2019-Jun-15 09:10 157 0 gusting 3 11.7
2019-Jun-15 09:05 090 11.7
2019-Jun-15 09:00 135 0 gusting 1 12.2
2019-Jun-15 08:55 270 12.2
2019-Jun-15 08:50 292 0 gusting 2 12.2
2019-Jun-15 08:45 292 0 gusting 2 12.2
2019-Jun-15 08:40 315 11.7
2019-Jun-15 08:35 135 0 gusting 2 11.7
2019-Jun-15 08:30 112 0 gusting 2 12.2
2019-Jun-15 08:25 135 0 gusting 1 12.2
2019-Jun-15 08:20 135 1 gusting 3 12.2
2019-Jun-15 08:15 135 1 gusting 3 12.2
2019-Jun-15 08:10 157 1 gusting 3 12.2
2019-Jun-15 08:05 135 1 gusting 3 12.2
2019-Jun-15 08:00 180 1 gusting 5 12.2
2019-Jun-15 07:55 135 2 gusting 4 12.2
2019-Jun-15 07:50 157 1 gusting 4 12.2
2019-Jun-15 07:45 135 3 gusting 5 12.2
2019-Jun-15 07:40 135 2 gusting 4 12.2
2019-Jun-15 07:35 135 3 gusting 5 12.2
2019-Jun-15 07:30 135 1 gusting 3 12.2
2019-Jun-15 07:25 090 0 gusting 3 12.2
2019-Jun-15 07:20 135 1 gusting 3 12.2
2019-Jun-15 07:15 112 1 gusting 2 12.2
2019-Jun-15 07:10 135 12.2
2019-Jun-15 07:05 135 12.8
2019-Jun-15 07:00 135 0 gusting 1 12.8
2019-Jun-15 06:55 135 12.8
2019-Jun-15 06:50 135 13.3
2019-Jun-15 06:45 270 13.3
2019-Jun-15 06:40 270 13.3
2019-Jun-15 06:35 247 1 gusting 2 13.3
2019-Jun-15 06:30 225 13.3
2019-Jun-15 06:25 180 13.3
2019-Jun-15 06:20 247 13.3
2019-Jun-15 06:15 225 12.8
2019-Jun-15 06:05 157 13.3
2019-Jun-15 06:00 180 13.3
2019-Jun-15 05:55 135 13.3
2019-Jun-15 05:50 135 13.3
2019-Jun-15 05:45 112 13.3
2019-Jun-15 05:40 180 13.3
2019-Jun-15 05:35 180 13.3
2019-Jun-15 05:30 180 13.3
2019-Jun-15 05:25 180 13.9
2019-Jun-15 05:20 180 13.9
2019-Jun-15 05:15 180 13.9
2019-Jun-15 05:10 270 14.4
2019-Jun-15 05:05 270 14.4
2019-Jun-15 05:00 270 1 gusting 2 13.9
2019-Jun-15 04:55 225 14.4
2019-Jun-15 04:50 135 0 gusting 1 14.4
2019-Jun-15 04:45 135 0 gusting 1 14.4
2019-Jun-15 04:40 270 15.0
2019-Jun-15 04:35 270 0 gusting 1 15.0
2019-Jun-15 04:30 270 1 gusting 2 15.0
2019-Jun-15 04:25 247 0 gusting 1 15.0
2019-Jun-15 04:20 180 15.0
2019-Jun-15 04:15 180 15.0
2019-Jun-15 04:10 270 15.0
2019-Jun-15 04:05 270 15.6
2019-Jun-15 04:00 225 15.6
2019-Jun-15 03:55 180 15.6
2019-Jun-15 03:50 180 16.1
2019-Jun-15 03:45 180 16.1
2019-Jun-15 03:40 270 16.1
2019-Jun-15 03:35 270 0 gusting 2 16.1
2019-Jun-15 03:30 270 0 gusting 3 16.1
2019-Jun-15 03:25 270 1 gusting 2 16.1
2019-Jun-15 03:20 270 16.1
2019-Jun-15 03:15 270 1 gusting 2 16.7
2019-Jun-15 03:10 270 1 gusting 3 16.7
2019-Jun-15 03:05 270 0 gusting 3 16.7
2019-Jun-15 03:00 270 16.7